MST,Max TemperatureF,Mean TemperatureF,Min TemperatureF,Max Dew PointF,MeanDew PointF,Min DewpointF,Max Humidity, Mean Humidity, Min Humidity, Max Sea Level PressureIn, Mean Sea Level PressureIn, Min Sea Level PressureIn, Max VisibilityMiles, Mean VisibilityMiles, Min VisibilityMiles, Max Wind SpeedMPH, Mean Wind SpeedMPH, Max Gust SpeedMPH,PrecipitationIn, CloudCover, Events, WindDirDegrees
2011-11-1,46,31,15,25,21,14,80,54,28,30.43,30.21,30.05,10,10,10,21,10,28,0.00,1,,251
2011-11-2,49,33,17,17,13,7,74,49,23,30.54,30.41,30.18,10,10,10,15,8,20,0.00,0,,116
2011-11-3,59,43,26,20,11,5,47,30,13,30.15,29.85,29.54,10,10,10,20,6,25,0.00,0,,112
2011-11-4,52,42,31,34,27,12,89,55,21,29.77,29.63,29.40,10,9,1,21,12,29,T,6,Rain-Snow,237
2011-11-5,42,34,25,27,20,12,78,56,33,29.87,29.78,29.70,10,10,8,24,13,31,T,5,Snow,241
2011-11-6,43,35,26,30,24,18,92,69,45,30.03,29.91,29.84,10,9,2,15,6,20,T,8,Snow,180
2011-11-7,40,33,26,30,27,21,92,73,54,30.27,30.15,30.05,10,6,0,14,8,16,T,6,Fog-Snow,247
2011-11-8,44,32,20,25,21,17,84,65,45,30.46,30.34,30.23,10,10,10,13,7,17,0.00,0,,203
2011-11-9,51,33,15,25,19,14,84,56,27,30.58,30.48,30.41,10,10,10,12,5,14,0.00,0,,82
2011-11-10,54,36,17,25,18,12,81,54,26,30.41,30.28,30.09,10,10,10,9,5,13,0.00,0,,87
2011-11-11,53,35,17,23,17,12,80,51,21,30.08,29.87,29.60,10,10,10,16,5,22,0.00,2,,119
2011-11-12,49,38,26,34,24,19,85,60,34,29.86,29.72,29.49,10,8,0,37,16,46,0.01,6,Fog-Rain-Snow,229
2011-11-13,50,42,33,33,28,20,89,63,37,29.83,29.78,29.75,10,9,2,31,14,41,0.01,5,Rain-Snow,227
2011-11-14,49,40,31,23,21,18,56,44,31,29.88,29.82,29.75,10,10,10,24,13,31,0.00,0,,236
2011-11-15,46,37,28,25,22,19,75,55,34,30.21,30.06,29.88,10,10,10,23,13,29,0.00,2,,231
2011-11-16,44,31,18,21,19,16,77,58,39,30.36,30.24,30.14,10,10,10,15,7,18,0.00,3,,74
2011-11-17,63,46,29,41,31,19,71,50,29,30.11,29.80,29.61,10,9,2,33,14,44,0.19,7,Rain,217
2011-11-18,39,34,29,32,30,22,96,78,59,29.73,29.65,29.49,10,5,0,26,13,36,0.33,8,Fog-Snow,212
2011-11-19,34,25,15,20,14,9,77,64,51,29.97,29.88,29.72,10,10,10,21,9,25,0.00,1,,163
2011-11-20,32,23,13,25,18,8,84,76,67,30.01,29.97,29.91,10,10,10,16,7,18,0.00,3,,98
2011-11-21,45,32,19,32,26,17,85,71,57,30.16,30.07,30.00,10,10,10,15,5,17,0.00,2,,178
2011-11-22,50,38,26,36,29,22,82,66,49,30.18,30.13,30.02,10,10,10,21,6,25,T,3,Rain,145
2011-11-23,56,45,34,33,27,21,75,51,27,30.01,29.89,29.72,10,10,10,17,9,24,0.00,0,,137
2011-11-24,60,49,37,29,25,21,60,42,24,29.88,29.80,29.73,10,10,10,21,9,24,0.00,2,,202
2011-11-25,46,37,27,34,23,11,63,46,28,30.53,30.17,29.86,10,10,8,37,19,46,0.02,3,Rain,237
2011-11-26,44,31,18,21,18,13,75,54,33,30.70,30.63,30.53,10,10,10,15,8,17,0.00,0,,98
2011-11-27,50,35,20,27,22,16,84,60,36,30.55,30.42,30.27,10,10,10,13,7,16,0.00,0,,95
2011-11-28,50,42,33,33,27,20,82,60,37,30.39,30.32,30.22,10,10,10,14,8,16,0.00,1,,215
2011-11-29,50,37,24,34,29,21,89,73,56,30.40,30.27,30.05,10,10,9,15,6,18,0.00,0,,142
2011-11-30,43,34,25,32,28,21,96,76,55,30.35,30.10,29.98,10,8,1,38,16,48,T,6,Snow,246